Hourly Data Report for October 29, 2015

All times are specified in Local Standard Time (LST). Add 1 hour to adjust for Daylight Saving Time where and when it is observed.

BAKER LAKE A
NUNAVUT

64°17'56.000" N
96°04'40.000" W
18.60 m
2300503
71926
YBK

Download Data

Hourly Data (October 2015)
Hourly Data Report for October 29, 2015
Temp Definition
°C
Dew Point Temp Definition
°C
Rel Hum Definition
%
Wind Dir Definition
10's deg

Wind Spd Definition
km/h
Visibility Definition
km
Stn Press Definition
kPa
Hmdx Definition


Wind Chill Definition


Weather Definition


TIME
00:00 Legend Double Dagger -9.2 -11.7 82 33 22 24.1 101.09   -17 Snow
01:00 Legend Double Dagger -10.6 -13.3 81 33 27 24.1 101.10   -20 Snow,Blowing Snow
02:00 Legend Double Dagger -11.5 -14.1 81 34 31 24.1 101.09   -22 Snow,Blowing Snow
03:00 Legend Double Dagger -11.2 -13.8 81 33 34 24.1 101.08   -22 Snow,Blowing Snow
04:00 Legend Double Dagger -11.1 -13.9 80 34 30 24.1 101.08   -21 Snow,Blowing Snow
05:00 Legend Double Dagger -11.8 -14.6 80 34 40 24.1 101.08   -23 Snow,Blowing Snow
06:00 Legend Double Dagger -12.6 -15.8 77 34 37 24.1 101.14   -24 Snow,Blowing Snow
07:00 Legend Double Dagger -15.0 -18.0 78 33 30 32.2 101.14   -26 LegendNANA
08:00 Legend Double Dagger -15.8 -18.7 79 31 15 32.2 101.18   -24 LegendNANA
09:00 Legend Double Dagger -14.8 -17.8 78 35 5 32.2 101.18   -18 Cloudy
10:00 Legend Double Dagger -13.8 -17.0 77 34 15 24.1 101.14   -21 Snow
11:00 Legend Double Dagger -13.5 -17.0 75 34 16 24.1 101.14   -21 Snow
12:00 Legend Double Dagger -13.7 -17.6 73 1 17 24.1 101.13   -22 Snow
13:00 Legend Double Dagger -14.5 -18.3 73 33 19 24.1 101.11   -23 Snow
14:00 Legend Double Dagger -14.6 -18.4 73 32 15 24.1 101.13   -22 Snow
15:00 Legend Double Dagger -15.0 -18.7 74 33 18 24.1 101.11   -24 Snow
16:00 Legend Double Dagger -16.6 -19.9 76 33 17 24.1 101.10   -25 Snow
17:00 Legend Double Dagger -18.1 -20.9 79 34 19 32.2 101.04   -28 LegendNANA
18:00 Legend Double Dagger -17.9 -20.6 80 32 12 24.1 101.02   -25 Mainly Clear
19:00 Legend Double Dagger -18.7 -21.5 79 31 15 24.1 101.04   -27 LegendNANA
20:00 Legend Double Dagger -18.7 -21.5 79 31 25 24.1 101.02   -30 LegendNANA
21:00 Legend Double Dagger -19.0 -21.8 79 34 19 24.1 100.96   -29 Mainly Clear
22:00 Legend Double Dagger -18.8 -21.6 79 31 16 24.1 100.95   -28 LegendNANA
23:00 Legend Double Dagger -19.1 -21.9 79 32 17 24.1 100.90   -29 LegendNANA

Notes on Data Quality.

Legend

  • E = Estimated
  • M = Missing
  • NA = Not Available
  • ‡ = Partner data that is not subject to review by the National Climate Archives
Date modified: